Location: Tierz
(42.1336°N, 0.3549°W)
Time: 22:22:09
(UTC+00:00)

Cosmos 1812 Rocket - Pass Details

Date: 29 October 2020
Orbit: 605 x 632 km, 82.5° (Epoch: 05 December)

Event Time Altitude Azimuth Distance (km) Brightness Sun altitude
Rises 18:56:38 0° 194° (SSW) 2,890 7.2 -22.4°
Reaches altitude 10° 18:58:53 10° 197° (SSW) 1,984 6.3 -22.8°
Maximum altitude 19:03:14 64° 279° (W) 687 3.9 -23.6°
Drops below altitude 10° 19:07:36 10° 2° (N) 1,983 6.2 -24.4°
Sets 19:09:51 0° 5° (N) 2,888 7.0 -24.9°
